Stratford, CT

9:47 PM EDT on August 29, 2016 (GMT -0400)
Sikorsky Memorial

Weather History for KBDR - February, 2013

Change the Weather History Date:

Wednesday, February 20, 2013

  Actual Average Record
Temperature  
Mean Temperature 33 °F 33 °F  
Max Temperature 40 °F 41 °F 54 °F (1949)
Min Temperature 25 °F 26 °F 1 °F (2015)
Degree Days  
Heating Degree Days 32 32  
Month to date heating degree days 706 665  
Since 1 July heating degree days 3392 3641  
Cooling Degree Days 0 0  
Month to date cooling degree days 0 0  
Year to date cooling degree days 0 0  
Moisture  
Dew Point 16 °F    
Average Humidity 57    
Maximum Humidity 70    
Minimum Humidity 43    
Precipitation  
Precipitation 0.00 in 0.10 in 1.13 in (1981)
Month to date precipitation 3.42 1.90  
Year to date precipitation 5.42 5.00  
Snow  
Snow 0.00 in 0.30 in 1.40 in (1977)
Month to date snowfall 30.4 5.8  
Since 1 July snowfall 51.3 19.3  
Snow Depth 11.00 in    
Sea Level Pressure  
Sea Level Pressure 29.79 in    
Wind  
Wind Speed 15 mph (WNW)    
Max Wind Speed 26 mph    
Max Gust Speed 36 mph    
Visibility 10 miles    
Events      
T = Trace of Precipitation, MM = Missing Value Source: NWS Daily Summary

Daily Weather History Graph

Daily Weather History Graph

Search for Another Location

Airport or City:

Trip Planner

Search our weather history database for the weather conditions in past years. The results will help you decide how hot, cold, wet, or windy it might be!

Date:

Astronomy

Feb. 20, 2013 Rise Set
Actual Time 6:39 AM EST 5:33 PM EST
Civil Twilight 6:11 AM EST 6:01 PM EST
Nautical Twilight 5:39 AM EST 6:33 PM EST
Astronomical Twilight 5:08 AM EST 7:05 PM EST
Moon 12:50 PM EST (2/20) 2:59 AM EST (2/20)
Length of Visible Light 11h 49m
Length of Day
10h 53m
Waxing Gibbous, 76% of the Moon is Illuminated
Feb 20
Waxing Gibbous
Feb 25
Full
Mar 4
Last Quarter
Mar 11
New
Mar 19
First Quarter

Hourly Weather History & Observations

Time (EST) Temp. Windchill Dew Point Humidity Pressure Visibility Wind Dir Wind Speed Gust Speed Precip Events Conditions
12:52 AM 37.9 °F 30.9 °F 27.0 °F 65% 29.67 in 10.0 mi West 10.4 mph 24.2 mph N/A   Clear
1:52 AM 36.0 °F 28.0 °F 25.0 °F 64% 29.68 in 10.0 mi West 11.5 mph 19.6 mph N/A   Clear
2:52 AM 35.6 °F 25.5 °F 21.2 °F 56% 29.68 in 10.0 mi West 17.3 mph 32.2 mph N/A   Clear
3:52 AM 35.1 °F 25.2 °F 19.0 °F 52% 29.69 in 10.0 mi West 16.1 mph 25.3 mph N/A   Mostly Cloudy
4:52 AM 33.1 °F 25.5 °F 19.9 °F 59% 29.71 in 10.0 mi West 9.2 mph 19.6 mph N/A   Clear
5:52 AM 32.0 °F 23.0 °F 19.9 °F 61% 29.73 in 10.0 mi West 11.5 mph 23.0 mph N/A   Clear
6:52 AM 30.9 °F 21.2 °F 19.9 °F 64% 29.75 in 10.0 mi WNW 12.7 mph - N/A   Partly Cloudy
7:52 AM 32.0 °F 21.2 °F 17.1 °F 54% 29.78 in 10.0 mi WNW 16.1 mph - N/A   Overcast
8:52 AM 30.9 °F 20.7 °F 17.1 °F 57% 29.79 in 10.0 mi WNW 13.8 mph 21.9 mph N/A   Overcast
9:52 AM 30.9 °F 21.7 °F 19.0 °F 61% 29.81 in 10.0 mi West 11.5 mph 23.0 mph N/A   Overcast
10:52 AM 32.0 °F 20.8 °F 16.0 °F 52% 29.80 in 10.0 mi West 17.3 mph 28.8 mph N/A   Mostly Cloudy
11:52 AM 32.0 °F 21.2 °F 12.2 °F 44% 29.79 in 10.0 mi West 16.1 mph 26.5 mph N/A   Mostly Cloudy
12:52 PM 32.0 °F 20.1 °F 12.2 °F 44% 29.78 in 10.0 mi WNW 19.6 mph - N/A   Mostly Cloudy
1:52 PM 32.0 °F 19.5 °F 12.0 °F 44% 29.78 in 10.0 mi WNW 21.9 mph 28.8 mph N/A   Overcast
2:52 PM 32.0 °F 21.2 °F 12.0 °F 44% 29.79 in 10.0 mi West 16.1 mph 35.7 mph N/A   Mostly Cloudy
3:52 PM 32.0 °F 21.6 °F 12.9 °F 45% 29.81 in 10.0 mi West 15.0 mph 27.6 mph N/A   Mostly Cloudy
4:52 PM 30.0 °F 16.0 °F 10.0 °F 43% 29.82 in 10.0 mi WNW 25.3 mph 34.5 mph N/A   Partly Cloudy
5:52 PM 28.4 °F 19.1 °F 12.2 °F 51% 29.85 in 10.0 mi West 10.4 mph 21.9 mph N/A   Scattered Clouds
6:52 PM 28.0 °F 15.7 °F 12.9 °F 53% 29.87 in 10.0 mi WNW 17.3 mph 28.8 mph N/A   Partly Cloudy
7:52 PM 26.6 °F 12.0 °F 10.4 °F 51% 29.88 in 10.0 mi WNW 23.0 mph 32.2 mph N/A   Clear
8:52 PM 26.1 °F 12.7 °F 10.0 °F 51% 29.89 in 10.0 mi West 18.4 mph 29.9 mph N/A   Clear
9:52 PM 24.8 °F 12.4 °F 10.4 °F 54% 29.89 in 10.0 mi WNW 15.0 mph 26.5 mph N/A   Clear
11:52 PM 25.0 °F 14.8 °F 10.9 °F 55% 29.93 in 10.0 mi WNW 10.4 mph 19.6 mph N/A   Clear